Weather reports worldwide

Advertisment
South Newington, United Kingdom (99166): temperature & dewpoint: 11.10.2017 15:00:00 - 17.10.2017 15:00:00 (BST)South Newington, United Kingdom (99166): temperature -20cm & temperature -100cm: 11.10.2017 15:00:00 - 17.10.2017 15:00:00 (BST)South Newington, United Kingdom (99166): precipitation: 11.10.2017 15:00:00 - 17.10.2017 15:00:00 (BST)
Date & Time tt [°C] td [°C] tt -20cm [°C] tt -100cm [°C] rr [mm]
17.10.2017 15:00:00 14,2 8,8 - - 0,0
17.10.2017 14:00:00 14,9 8,4 - - 0,0
17.10.2017 13:00:00 14,5 9,2 - - 0,0
17.10.2017 12:00:00 13,7 7,8 - - 0,0
17.10.2017 11:00:00 13,1 8,0 - - 0,0
17.10.2017 10:00:00 12,0 8,5 14,9 14,7 0,0
17.10.2017 09:00:00 10,2 7,8 - - 0,0
17.10.2017 08:00:00 9,0 7,3 - - 0,0
17.10.2017 07:00:00 9,0 7,0 - - 0,0
17.10.2017 06:00:00 9,5 7,2 - - 0,0
17.10.2017 05:00:00 9,9 7,1 - - 0,0
17.10.2017 04:00:00 10,3 6,8 - - 0,0
17.10.2017 03:00:00 11,0 6,8 - - 0,0
17.10.2017 02:00:00 11,4 6,6 - - 0,0
17.10.2017 01:00:00 11,7 6,7 - - 0,0
17.10.2017 00:00:00 12,2 6,9 - - 0,0
16.10.2017 23:00:00 12,6 6,9 - - 0,0
16.10.2017 22:00:00 13,0 7,3 - - 0,0
16.10.2017 21:00:00 13,1 7,2 - - 0,0
16.10.2017 20:00:00 13,7 7,8 - - 0,0
16.10.2017 19:00:00 14,4 8,2 - - 0,0
16.10.2017 18:00:00 15,2 8,2 - - 0,0
16.10.2017 17:00:00 16,3 8,5 - - 0,0
16.10.2017 16:00:00 17,8 10,3 - - 0,0
16.10.2017 15:00:00 17,6 11,8 - - 0,0
16.10.2017 14:00:00 18,2 13,6 - - 0,0
16.10.2017 13:00:00 19,0 14,6 - - 0,0
16.10.2017 12:00:00 19,7 15,0 - - 0,0
16.10.2017 11:00:00 19,0 15,5 - - 0,0
16.10.2017 10:00:00 16,6 15,3 15,0 14,7 0,0
16.10.2017 09:00:00 15,9 15,6 - - 0,0
16.10.2017 08:00:00 14,2 14,0 - - 0,0
16.10.2017 07:00:00 14,3 14,1 - - 0,0
16.10.2017 06:00:00 14,5 14,2 - - 0,0
16.10.2017 05:00:00 14,1 13,6 - - 0,0
16.10.2017 04:00:00 15,1 14,5 - - 0,0
16.10.2017 03:00:00 15,4 15,0 - - 0,0
16.10.2017 02:00:00 14,1 13,7 - - 0,0
16.10.2017 01:00:00 13,9 13,6 - - 0,0
16.10.2017 00:00:00 13,2 13,0 - - 0,0
15.10.2017 23:00:00 12,4 12,3 - - 0,0
15.10.2017 22:00:00 11,4 11,1 - - 0,0
15.10.2017 21:00:00 11,3 10,9 - - 0,0
15.10.2017 20:00:00 10,8 10,0 - - 0,0
15.10.2017 19:00:00 12,5 11,1 - - 0,0
15.10.2017 18:00:00 15,8 12,0 - - 0,0
15.10.2017 17:00:00 16,4 11,9 - - 0,0
15.10.2017 16:00:00 17,3 12,1 - - 0,0
15.10.2017 15:00:00 16,9 11,6 - - 0,0
15.10.2017 14:00:00 17,4 12,6 - - 0,0
15.10.2017 13:00:00 16,6 12,9 - - 0,0
15.10.2017 12:00:00 16,3 12,8 - - 0,0
15.10.2017 11:00:00 15,6 13,0 - - 0,0
15.10.2017 10:00:00 15,0 14,1 15,0 14,7 0,0
15.10.2017 09:00:00 14,7 13,6 - - 0,0
15.10.2017 08:00:00 14,6 13,7 - - 0,0
15.10.2017 07:00:00 14,0 13,5 - - 0,0
15.10.2017 06:00:00 13,8 13,2 - - 0,0
15.10.2017 05:00:00 13,5 13,0 - - 0,0
15.10.2017 04:00:00 13,2 12,8 - - 0,0
15.10.2017 03:00:00 12,8 12,4 - - 0,0
15.10.2017 02:00:00 12,7 12,3 - - 0,0
15.10.2017 01:00:00 12,8 12,4 - - 0,0
15.10.2017 00:00:00 11,6 11,4 - - 0,0
14.10.2017 23:00:00 9,9 9,1 - - 0,0
14.10.2017 22:00:00 11,9 10,5 - - 0,0
14.10.2017 21:00:00 15,5 12,5 - - 0,0
14.10.2017 20:00:00 16,3 12,5 - - 0,0
14.10.2017 19:00:00 16,3 12,5 - - 0,0
14.10.2017 18:00:00 17,3 13,2 - - 0,0
14.10.2017 17:00:00 17,9 13,6 - - 0,0
14.10.2017 16:00:00 18,2 13,4 - - 0,0
14.10.2017 15:00:00 18,4 13,8 - - 0,0
14.10.2017 14:00:00 18,9 14,1 - - 0,0
14.10.2017 13:00:00 19,7 15,4 - - 0,0
14.10.2017 12:00:00 17,3 15,1 - - 0,0
14.10.2017 11:00:00 16,5 15,1 - - 0,0
14.10.2017 10:00:00 16,5 14,9 14,9 14,7 0,0
14.10.2017 09:00:00 15,9 14,7 - - 0,0
14.10.2017 08:00:00 14,8 13,9 - - 0,0
14.10.2017 07:00:00 14,7 13,8 - - 0,0
14.10.2017 06:00:00 15,6 14,1 - - 0,0
14.10.2017 05:00:00 15,8 14,4 - - 0,0
14.10.2017 04:00:00 15,9 14,4 - - 0,0
14.10.2017 03:00:00 16,2 14,5 - - 0,0
14.10.2017 02:00:00 16,2 14,5 - - 0,0
14.10.2017 01:00:00 16,1 14,4 - - 0,0
14.10.2017 00:00:00 16,3 14,5 - - 0,0
13.10.2017 23:00:00 16,3 14,4 - - 0,0
13.10.2017 22:00:00 16,4 14,4 - - 0,0
13.10.2017 21:00:00 16,7 14,4 - - 0,0
13.10.2017 20:00:00 17,0 14,5 - - 0,0
13.10.2017 19:00:00 17,1 14,5 - - 0,0
13.10.2017 18:00:00 17,7 14,4 - - 0,0
13.10.2017 17:00:00 18,6 14,5 - - 0,0
13.10.2017 16:00:00 19,0 14,5 - - 0,0
13.10.2017 15:00:00 20,1 15,4 - - 0,0
13.10.2017 14:00:00 18,8 14,7 - - 0,0
13.10.2017 13:00:00 18,6 14,9 - - 0,0
13.10.2017 12:00:00 17,8 15,0 - - 0,0
13.10.2017 11:00:00 17,4 14,6 - - 0,0
13.10.2017 10:00:00 16,8 14,7 14,5 14,7 0,0
13.10.2017 09:00:00 16,2 14,7 - - 0,0
13.10.2017 08:00:00 15,6 14,3 - - 0,0
13.10.2017 07:00:00 15,2 14,1 - - 0,0
13.10.2017 06:00:00 14,8 13,7 - - 0,0
13.10.2017 05:00:00 14,4 13,3 - - 0,0
13.10.2017 04:00:00 13,8 12,6 - - 0,0
13.10.2017 03:00:00 12,9 11,8 - - 0,0
13.10.2017 02:00:00 12,2 11,1 - - 0,0
13.10.2017 01:00:00 11,2 10,0 - - 0,0
13.10.2017 00:00:00 11,1 9,8 - - 0,0
12.10.2017 23:00:00 10,9 9,4 - - 0,0
12.10.2017 22:00:00 10,8 9,4 - - 0,0
12.10.2017 21:00:00 9,7 8,5 - - 0,0
12.10.2017 20:00:00 10,7 8,6 - - 0,0
12.10.2017 19:00:00 11,0 8,2 - - 0,0
12.10.2017 18:00:00 13,8 9,0 - - 0,0
12.10.2017 17:00:00 14,7 8,5 - - 0,0
12.10.2017 16:00:00 14,9 9,7 - - 0,0
12.10.2017 15:00:00 15,3 10,1 - - 0,0
12.10.2017 14:00:00 15,3 10,6 - - 0,0
12.10.2017 13:00:00 14,8 10,2 - - 0,0
12.10.2017 12:00:00 14,6 10,2 - - 0,0
12.10.2017 11:00:00 13,1 10,7 - - 0,0
12.10.2017 10:00:00 11,2 10,8 14,7 14,7 0,0
12.10.2017 09:00:00 9,7 9,6 - - 0,0
12.10.2017 08:00:00 8,1 7,9 - - 0,0
12.10.2017 07:00:00 6,5 6,4 - - 0,0
12.10.2017 06:00:00 5,5 5,1 - - 0,0
12.10.2017 05:00:00 6,7 6,5 - - 0,0
12.10.2017 04:00:00 6,8 6,4 - - 0,0
12.10.2017 03:00:00 6,8 6,1 - - 0,0
12.10.2017 02:00:00 8,4 7,8 - - 0,2
12.10.2017 01:00:00 8,6 7,0 - - 0,0
12.10.2017 00:00:00 9,9 8,0 - - 0,0
11.10.2017 23:00:00 10,7 8,6 - - 0,0
11.10.2017 22:00:00 11,2 8,9 - - 0,0
11.10.2017 21:00:00 12,3 9,7 - - 0,0
11.10.2017 20:00:00 13,0 11,1 - - 0,0
11.10.2017 19:00:00 14,4 13,2 - - 0,2
11.10.2017 18:00:00 14,4 13,3 - - 0,0
11.10.2017 17:00:00 15,6 12,3 - - 0,0
11.10.2017 16:00:00 15,9 11,9 - - 0,0
11.10.2017 15:00:00 16,4 11,8 - - 0,0

tt = temperature
td = dewpoint
tt -20cm = temperature -20cm
tt -100cm = temperature -100cm
rr = precipitation

Next stations